This is the latest recevied weather packets stored in our database for station/object VE3MNX. If no packets are shown the sender has not sent any weather packets the latest 10 day(s).
| Time | Temp. | Humidity | Pressure | Rain* | Wind** | Luminosity | Snow |
|---|---|---|---|---|---|---|---|
| 1777697593 | 3.33° C | 75% | 1016.3 hPa | 0 mm | - | - | - |
| 1777696692 | 3.33° C | 76% | 1016.3 hPa | 0 mm | - | - | - |
| 1777695794 | 3.89° C | 71% | 1016.3 hPa | 0 mm | - | - | - |
| 1777694892 | 3.89° C | 71% | 1016.3 hPa | 0 mm | - | - | - |
| 1777693992 | 3.89° C | 72% | 1015.9 hPa | 0 mm | - | - | - |
| 1777693092 | 3.89° C | 68% | 1015.6 hPa | 0 mm | - | - | - |
| 1777692194 | 3.89° C | 72% | 1015.9 hPa | 0 mm | - | - | - |
| 1777691293 | 3.89° C | 73% | 1015.6 hPa | 0 mm | - | - | - |
| 1777690393 | 3.89° C | 72% | 1015.6 hPa | 0 mm | - | - | - |
| 1777689492 | 4.44° C | 72% | 1015.9 hPa | 0 mm | - | - | - |
| 1777688594 | 4.44° C | 72% | 1015.9 hPa | 0 mm | - | - | - |
| 1777687693 | 4.44° C | 70% | 1015.6 hPa | 0 mm | - | - | - |
| 1777686794 | 5° C | 71% | 1015.4 hPa | 0 mm | - | - | - |
| 1777685892 | 5° C | 77% | 1014.9 hPa | 0 mm | - | - | - |
| 1777684995 | 5° C | 77% | 1014.6 hPa | 0 mm | - | - | - |
| 1777684092 | 5° C | 78% | 1014.6 hPa | 0 mm | - | - | - |
| 1777683192 | 5.56° C | 78% | 1014.6 hPa | 0 mm | - | - | - |
| 1777682292 | 5.56° C | 82% | 1014.6 hPa | 0 mm | - | - | - |
| 1777681393 | 6.11° C | 81% | 1014.2 hPa | 0 mm | - | - | - |
| 1777680493 | 6.11° C | 79% | 1013.9 hPa | 0 mm | - | - | - |
| 1777679594 | 6.11° C | 75% | 1013.9 hPa | 0 mm | - | - | - |
| 1777678693 | 6.67° C | 75% | 1013.5 hPa | 0 mm | - | - | - |
| 1777677795 | 6.67° C | 76% | 1013.5 hPa | 0 mm | - | - | - |
| 1777676892 | 7.22° C | 74% | 1013.2 hPa | 0 mm | - | - | - |
| 1777675992 | 7.78° C | 74% | 1013.2 hPa | 0 mm | - | - | - |
* Rain latest hour (hover to see other rain measurements)
** Current wind speed in m/s (hover to see current wind gust speed)